Weather History for KMMT - January, 2014

Change the Weather History Date:

Friday, January 31, 2014

  Actual Average Record
Temperature  
Mean Temperature 34 °F -  
Max Temperature 54 °F 54 °F 78 °F (2002)
Min Temperature 15 °F 34 °F 15 °F (2014)
Degree Days  
Heating Degree Days 30    
Moisture  
Dew Point 16 °F    
Average Humidity 58    
Maximum Humidity 86    
Minimum Humidity 18    
Precipitation  
Precipitation 0.00 in - - ()
Sea Level Pressure  
Sea Level Pressure 30.22 in    
Wind  
Wind Speed 2 mph (NW)    
Max Wind Speed 6 mph    
Max Gust Speed -    
Visibility 10 miles    
Events      
Averages and records for this station are not official NWS values.
T = Trace of Precipitation, MM = Missing Value Source: NWS Daily Summary

Daily Weather History Graph

Daily Weather History Graph

Search for Another Location

Airport or City:

Trip Planner

Search our weather history database for the weather conditions in past years. The results will help you decide how hot, cold, wet, or windy it might be!

Date:

Astronomy

Jan. 31, 2014 Rise Set
Actual Time 7:20 AM EST 5:52 PM EST
Civil Twilight 6:54 AM EST 6:19 PM EST
Nautical Twilight 6:24 AM EST 6:49 PM EST
Astronomical Twilight 5:55 AM EST 7:18 PM EST
Moon 7:34 AM EST (1/31) 7:09 PM EST (1/31)
Length of Visible Light 11h 24m
Length of Day
10h 32m
New Moon, 1% of the Moon is Illuminated
Jan 31
New Moon
Feb 6
First Quarter
Feb 14
Full
Feb 22
Last Quarter
Mar 1
New

Hourly Weather History & Observations

Time (EST) Temp. Windchill Dew Point Humidity Pressure Visibility Wind Dir Wind Speed Gust Speed Precip Events Conditions
12:58 AM 20.7 °F - 14.4 °F 77% 30.25 in 10.0 mi West 2.3 mph - N/A   Clear
1:58 AM 19.9 °F - 14.4 °F 79% 30.24 in 10.0 mi Calm Calm - N/A   Clear
2:58 AM 18.1 °F - 14.0 °F 84% 30.24 in 10.0 mi WNW 2.3 mph - N/A   Clear
3:58 AM 17.2 °F - 13.5 °F 85% 30.23 in 10.0 mi NW 2.3 mph - N/A   Clear
4:58 AM 17.2 °F 11.9 °F 13.6 °F 86% 30.22 in 10.0 mi NNW 3.5 mph - N/A   Clear
5:58 AM 15.8 °F 7.2 °F 10.4 °F 79% 30.22 in 10.0 mi NNW 5.8 mph - N/A   Clear
6:55 AM 16.5 °F - 12.9 °F 86% 30.23 in 10.0 mi Calm Calm - N/A   Partly Cloudy
7:58 AM 18.9 °F 13.7 °F 14.0 °F 81% 30.26 in 10.0 mi NNW 3.5 mph - N/A   Partly Cloudy
8:58 AM 26.4 °F 20.9 °F 17.8 °F 70% 30.27 in 10.0 mi NW 4.6 mph - N/A   Partly Cloudy
9:58 AM 34.7 °F - 14.0 °F 43% 30.29 in 10.0 mi SW 2.3 mph - N/A   Partly Cloudy
10:58 AM 39.9 °F - 14.5 °F 36% 30.27 in 10.0 mi Variable 2.3 mph - N/A   Partly Cloudy
11:58 AM 45.1 °F 43.7 °F 11.8 °F 26% 30.25 in 10.0 mi Variable 3.5 mph - N/A   Partly Cloudy
12:58 PM 48.6 °F - 10.0 °F 21% 30.21 in 10.0 mi Calm Calm - N/A   Partly Cloudy
1:58 PM 52.0 °F - 11.8 °F 20% 30.19 in 10.0 mi Variable 1.2 mph - N/A   Partly Cloudy
2:58 PM 54.5 °F - 10.8 °F 18% 30.19 in 10.0 mi Variable 2.3 mph - N/A   Partly Cloudy
3:58 PM 54.5 °F - 10.9 °F 18% 30.19 in 10.0 mi NNW 2.3 mph - N/A   Partly Cloudy
4:58 PM 54.9 °F - 11.1 °F 18% 30.18 in 10.0 mi Calm Calm - N/A   Partly Cloudy
5:58 PM 50.0 °F - 15.3 °F 25% 30.16 in 10.0 mi ENE 2.3 mph - N/A   Partly Cloudy
6:58 PM 38.5 °F - 20.3 °F 48% 30.20 in 10.0 mi Calm Calm - N/A   Partly Cloudy
7:58 PM 33.1 °F - 24.3 °F 70% 30.21 in 10.0 mi NNW 2.3 mph - N/A   Clear
8:58 PM 30.7 °F - 24.3 °F 77% 30.21 in 10.0 mi North 2.3 mph - N/A   Clear
9:58 PM 29.7 °F - 23.0 °F 76% 30.21 in 10.0 mi SE 1.2 mph - N/A   Clear
10:58 PM 28.6 °F - 23.0 °F 80% 30.21 in 10.0 mi NW 2.3 mph - N/A   Clear
11:58 PM 27.5 °F - 22.5 °F 81% 30.22 in 10.0 mi NNW 2.3 mph - N/A   Clear